[[{"header":{"parameterUnit":"m.s-1","parameterCategory":1,"la1":30.2991,"la2":30.254,"lo1":-89.0895,"lo2":-89.0444,"dy":0.0017,"dx":0.0017,"nx":28,"ny":28,"refTime":"2024-07-11T09:00:00:Z","depth":0,"parameterNumber":2,"parameterNumberName":"U-component_of_WINDS"},"data":[0,0,0,0,0,0,0,0,0,0,0,0,0,0,0,0,0,0,0,0,0,0,0,0,0,0,0,0,0,0,0,0,0,0,0,0,0,0,0,0,0,0,0,0,0,0,0,0,0,0,0,0,0,0,0,0,0,0,0.4514,0.4515,0,0.4581,0.4582,0.4583,0.4607,0.4607,0.4607,0.4607,0.4676,0.4678,0.468,0,0,0,0,0,0,0,0,0,0,0,0,0,0.4406,0.4408,0.4514,0.4515,0.4516,0.4581,0.4582,0.4583,0.4608,0.4607,0.4607,0.4607,0.4675,0.4678,0.468,0,0,0,0,0,0,0,0,0,0,0,0,0,0.4461,0.4409,0.4514,0.4536,0.4538,0.4581,0.4582,0.4583,0.4608,0.4607,0.4607,0.4607,0.4675,0.4678,0.4681,0.4707,0,0,0.469,0.4691,0,0,0,0,0,0,0,0,0.4458,0.4465,0.4532,0.4534,0.4537,0.4586,0.457,0.4625,0.4608,0.4581,0.4607,0.4606,0.4646,0.4652,0.4665,0.471,0.4713,0.469,0.4692,0.4694,0.4694,0,0,0,0,0,0,0,0.4454,0.4462,0.4541,0.4533,0.4536,0.4542,0.455,0.458,0.4615,0.4584,0.4585,0.4593,0.4648,0.4662,0.4667,0.4714,0.469,0.4693,0.4695,0.4696,0.4784,0.4784,0,0,0,0,0,0,0.4447,0.4459,0.4539,0.4543,0.4496,0.4544,0.4553,0.457,0.4615,0.4621,0.4593,0.4594,0.4657,0.4663,0.4669,0.4703,0.4694,0.4696,0.4698,0.4783,0.4784,0.4785,0,0,0,0,0,0,0.4444,0.4454,0.4536,0.4501,0.4512,0.4547,0.4566,0.4572,0.4586,0.4622,0.4628,0.4602,0.4657,0.4665,0.4697,0.4706,0.4698,0.4701,0.4783,0.4784,0.4784,0.477,0,0,0,0,0,0,0.4441,0.4453,0.4463,0.4501,0.4514,0.4562,0.4567,0.4574,0.4592,0.4593,0.4632,0.4638,0.4657,0.4693,0.47,0.471,0.4703,0.4782,0.4783,0.4784,0.477,0.4771,0.4771,0,0,0,0,0,0.4437,0.4456,0.4463,0.4473,0.4528,0.4563,0.457,0.4592,0.4592,0.4603,0.4626,0.4636,0.4704,0.4696,0.4705,0.4715,0.4782,0.4783,0.4784,0.477,0.477,0.4771,0,0,0,0,0,0,0.4418,0.4462,0.447,0.4502,0.4528,0.4567,0.4581,0.4592,0.4619,0.4619,0.4646,0.4655,0.4685,0.4703,0.4694,0.4743,0.4743,0.4746,0.473,0.473,0.4731,0.4726,0.4706,0,0,0,0,0,0.4417,0.4442,0.4479,0.4504,0.4517,0.4546,0.4563,0.4578,0.4606,0.4617,0.4643,0.467,0.4698,0.4715,0.4742,0.4773,0.4782,0.4785,0.4785,0.4785,0.4787,0.4805,0.4807,0.4788,0.4788,0.4788,0,0,0.4416,0.4443,0.4457,0.45,0.4523,0.4548,0.4556,0.4582,0.4601,0.4622,0.4654,0.4673,0.4705,0.4737,0.4752,0.4753,0.4794,0.4786,0.4786,0.4788,0.4806,0.4808,0.481,0.4789,0.4789,0.4788,0,0,0.4427,0.445,0.4473,0.4496,0.4529,0.4549,0.4554,0.4591,0.4605,0.4638,0.4653,0.4676,0.4723,0.4745,0.4763,0.4783,0.4793,0.4791,0.4792,0.4809,0.4811,0.4812,0.4819,0.4822,0.4793,0.4793,0.4793,0,0.4422,0.446,0.4484,0.451,0.4528,0.4548,0.4571,0.4592,0.4633,0.4645,0.4646,0.4705,0.4728,0.4765,0.477,0.4783,0.479,0.4786,0.4809,0.481,0.4812,0.4819,0.4822,0.4792,0.4792,0.4792,0.4792,0,0.4452,0.4479,0.4493,0.4532,0.4553,0.4577,0.4604,0.4622,0.4635,0.4655,0.4688,0.4716,0.4749,0.4759,0.4772,0.4799,0.4798,0.4803,0.4804,0.4813,0.482,0.4823,0.4791,0.4792,0.4792,0.4792,0,0,0.4453,0.4504,0.4509,0.4527,0.4566,0.4587,0.4613,0.4645,0.466,0.4687,0.4709,0.4748,0.4753,0.4773,0.4789,0.4804,0.4818,0.4808,0.4809,0.4809,0.4849,0.4845,0.4847,0.4825,0.4826,0.4826,0.4846,0,0.4469,0.4515,0.4537,0.4574,0.4599,0.4618,0.464,0.4666,0.4685,0.4709,0.473,0.4758,0.4762,0.4774,0.479,0.4813,0.4826,0.4812,0.4846,0.4847,0.4838,0.4851,0.4847,0.4864,0.4849,0.485,0.485,0,0.4494,0.4522,0.4561,0.4597,0.4608,0.4628,0.4659,0.4682,0.4712,0.4725,0.4747,0.4762,0.479,0.4789,0.4827,0.4817,0.4832,0.4846,0.4847,0.4851,0.4849,0.4856,0.487,0.4873,0.4855,0.4854,0.4854,0,0.4491,0.4538,0.4567,0.4582,0.4625,0.4638,0.4656,0.4686,0.4704,0.4732,0.4744,0.4775,0.4791,0.4815,0.4838,0.4835,0.4874,0.4875,0.4886,0.4885,0.4893,0.4892,0.491,0.4903,0.4903,0.4903,0.4903,0,0.4507,0.453,0.4566,0.4585,0.4611,0.4636,0.4662,0.4682,0.4708,0.473,0.4749,0.4769,0.4799,0.4823,0.4841,0.4871,0.4878,0.4889,0.4894,0.4888,0.4886,0.4898,0.4898,0.4903,0.4903,0.4903,0.4903,0,0.4508,0.4533,0.4566,0.4604,0.4614,0.4632,0.4664,0.4683,0.4702,0.4731,0.4739,0.477,0.48,0.4825,0.4864,0.4877,0.4907,0.4912,0.4897,0.4899,0.4908,0.4907,0.4935,0.494,0.4929,0.4929,0.4929,0,0.4516,0.4535,0.4574,0.4591,0.4609,0.4635,0.4653,0.4679,0.4697,0.4733,0.4747,0.4778,0.4804,0.4851,0.4877,0.4907,0.4914,0.4921,0.4918,0.4912,0.4914,0.4913,0.4915,0.4921,0.4921,0.4921,0.4921,0,0.4529,0.454,0.4567,0.4597,0.4619,0.4645,0.4671,0.4683,0.4713,0.4733,0.4764,0.4784,0.4824,0.4855,0.4888,0.4907,0.4919,0.4922,0.4926,0.492,0.4911,0.4916,0.4897,0.4921,0.4921,0.4921,0.4921,0.4921,0.4534,0.4551,0.4582,0.4611,0.4633,0.4656,0.4676,0.4698,0.4724,0.4759,0.4772,0.4803,0.4833,0.4879,0.4898,0.4923,0.4925,0.493,0.4932,0.4933,0.4932,0.4906,0.4929,0.4929,0.4929,0.4929,0.4929,0,0.4548,0.4568,0.4594,0.463,0.4653,0.4662,0.4692,0.471,0.4737,0.4764,0.4789,0.4825,0.4854,0.4883,0.4915,0.4929,0.4936,0.4936,0.4936,0.494,0.4929,0.4922,0.4931,0.4931,0.4931,0.4931,0.4931,0.4931,0.4557,0.4587,0.4602,0.4643,0.4664,0.4695,0.471,0.4733,0.4754,0.4793,0.4818,0.4836,0.4864,0.4897,0.4925,0.4933,0.4944,0.4943,0.4952,0.4941,0.4941,0.494,0.4934,0.4945,0.4945,0.4961,0.4962,0.4962]},{"header":{"parameterUnit":"m.s-1","parameterCategory":1,"la1":30.2991,"la2":30.254,"lo1":-89.0895,"lo2":-89.0444,"dy":0.0017,"dx":0.0017,"nx":28,"ny":28,"refTime":"2024-07-11T09:00:00:Z","depth":0,"parameterNumber":3,"parameterNumberName":"V-component_of_WINDS"},"data":[0,0,0,0,0,0,0,0,0,0,0,0,0,0,0,0,0,0,0,0,0,0,0,0,0,0,0,0,0,0,0,0,0,0,0,0,0,0,0,0,0,0,0,0,0,0,0,0,0,0,0,0,0,0,0,0,0,0,1.0746,1.0747,0,1.077,1.077,1.077,1.0772,1.0772,1.0772,1.0771,1.0793,1.0793,1.0794,0,0,0,0,0,0,0,0,0,0,0,0,0,1.0701,1.0702,1.0746,1.0747,1.0747,1.077,1.077,1.077,1.0772,1.0772,1.0772,1.0771,1.0792,1.0793,1.0794,0,0,0,0,0,0,0,0,0,0,0,0,0,1.0722,1.0702,1.0746,1.0751,1.0751,1.077,1.077,1.077,1.0772,1.0772,1.0772,1.0771,1.0792,1.0793,1.0794,1.0809,0,0,1.0798,1.0798,0,0,0,0,0,0,0,0,1.0721,1.0724,1.075,1.0751,1.0751,1.0768,1.0762,1.0783,1.0772,1.0764,1.0771,1.0771,1.0784,1.0786,1.0791,1.081,1.0811,1.0798,1.0799,1.0799,1.08,0,0,0,0,0,0,0,1.0719,1.0723,1.0756,1.075,1.0751,1.0751,1.0753,1.0766,1.0776,1.0765,1.0765,1.0768,1.0785,1.079,1.0792,1.0811,1.0798,1.0799,1.08,1.08,1.0842,1.0843,0,0,0,0,0,0,1.0717,1.0721,1.0755,1.0756,1.0735,1.0752,1.0755,1.0763,1.0776,1.0778,1.0768,1.0768,1.0788,1.079,1.0792,1.081,1.0799,1.08,1.0801,1.0842,1.0842,1.0843,0,0,0,0,0,0,1.0716,1.072,1.0754,1.0739,1.0743,1.0753,1.0762,1.0763,1.0769,1.0779,1.078,1.0772,1.0788,1.0791,1.0805,1.0811,1.0801,1.0802,1.0841,1.0842,1.0843,1.0846,0,0,0,0,0,0,1.0715,1.072,1.0726,1.0739,1.0744,1.0767,1.0762,1.0764,1.0771,1.0771,1.0783,1.0784,1.0788,1.0803,1.0806,1.0812,1.0803,1.0841,1.0842,1.0842,1.0845,1.0847,1.0848,0,0,0,0,0,1.0713,1.0726,1.0727,1.0731,1.0752,1.0767,1.077,1.0775,1.0772,1.0778,1.0784,1.0784,1.081,1.0805,1.0808,1.0815,1.084,1.0841,1.0842,1.0845,1.0846,1.0848,0,0,0,0,0,0,1.0712,1.0728,1.0729,1.0746,1.0755,1.0767,1.0775,1.0776,1.0786,1.0786,1.0791,1.0793,1.0807,1.0812,1.0806,1.0829,1.0825,1.0826,1.0825,1.0827,1.0828,1.0827,1.0804,0,0,0,0,0,1.0714,1.0726,1.0738,1.0752,1.0757,1.0765,1.0772,1.0775,1.0785,1.0789,1.0796,1.0804,1.0815,1.0821,1.0831,1.0846,1.0848,1.0852,1.0854,1.0855,1.0856,1.0864,1.0866,1.0846,1.0846,1.0846,0,0,1.0718,1.0728,1.0735,1.0752,1.076,1.0771,1.0769,1.0781,1.0789,1.079,1.0804,1.081,1.0819,1.0834,1.0841,1.0839,1.0862,1.0856,1.0856,1.0857,1.0865,1.0867,1.0868,1.0846,1.0846,1.0846,0,0,1.0731,1.0739,1.0752,1.076,1.0772,1.0778,1.0781,1.0793,1.0797,1.0811,1.0812,1.0821,1.0839,1.0846,1.0852,1.0867,1.0867,1.087,1.0876,1.0884,1.0886,1.0887,1.0892,1.0894,1.0871,1.0871,1.0871,0,1.0733,1.0752,1.0758,1.077,1.0777,1.078,1.0792,1.0799,1.0814,1.0818,1.0816,1.0838,1.0845,1.0861,1.0865,1.087,1.0873,1.0869,1.0885,1.0886,1.0888,1.0893,1.0895,1.0872,1.0872,1.0872,1.0872,0,1.0754,1.0767,1.0775,1.079,1.0798,1.081,1.0817,1.0825,1.0827,1.0833,1.0847,1.0855,1.0867,1.0871,1.0873,1.0887,1.0886,1.0884,1.088,1.089,1.0895,1.0897,1.0872,1.0872,1.0872,1.0872,0,0,1.0767,1.0785,1.0788,1.0795,1.0809,1.0818,1.083,1.0842,1.0848,1.0858,1.0867,1.0882,1.0881,1.0887,1.089,1.0897,1.0908,1.0895,1.0895,1.0897,1.0924,1.0925,1.0927,1.0909,1.0909,1.0909,1.0923,0,1.0781,1.0803,1.0809,1.0827,1.0839,1.0841,1.0852,1.086,1.0866,1.0875,1.0881,1.0891,1.0889,1.0893,1.09,1.0906,1.0914,1.0905,1.0917,1.0917,1.0914,1.093,1.0931,1.0944,1.0925,1.0925,1.0926,0,1.08,1.0811,1.0831,1.0843,1.0848,1.0857,1.0869,1.0878,1.0888,1.0892,1.0899,1.0901,1.0913,1.0908,1.0923,1.0917,1.0922,1.0926,1.0926,1.0927,1.0922,1.0931,1.0948,1.095,1.0929,1.0928,1.0928,0,1.0807,1.0827,1.0841,1.0847,1.0861,1.0868,1.0874,1.0884,1.0891,1.09,1.0905,1.0916,1.0921,1.0929,1.0934,1.093,1.0949,1.0944,1.0951,1.0951,1.0955,1.0955,1.0973,1.0959,1.0959,1.0959,1.0959,0,1.0822,1.0833,1.0844,1.0853,1.0866,1.0873,1.0885,1.0892,1.09,1.091,1.0912,1.0921,1.0927,1.0936,1.094,1.0952,1.0954,1.0957,1.0957,1.0956,1.0956,1.096,1.0959,1.0959,1.0959,1.0959,1.0959,0,1.0831,1.0839,1.0855,1.0868,1.0871,1.0881,1.0891,1.0899,1.0905,1.0917,1.092,1.0928,1.0939,1.0945,1.0958,1.096,1.0974,1.0974,1.0971,1.0971,1.0977,1.0977,1.0998,1.1001,1.0986,1.0986,1.0986,0,1.084,1.085,1.0864,1.0871,1.0877,1.0888,1.0896,1.0902,1.091,1.0922,1.0928,1.094,1.0949,1.0966,1.0973,1.0983,1.0983,1.099,1.0985,1.0983,1.0983,1.0982,1.0983,1.0991,1.0991,1.0991,1.0991,0,1.0855,1.0858,1.087,1.0882,1.0891,1.0901,1.091,1.0916,1.0924,1.0931,1.0943,1.0951,1.0965,1.0975,1.0986,1.0991,1.0992,1.0993,1.0995,1.0994,1.0991,1.0992,1.0973,1.0992,1.0992,1.0992,1.0992,1.0992,1.0864,1.0873,1.0884,1.0896,1.0904,1.0913,1.0922,1.0929,1.0939,1.0952,1.0954,1.0967,1.0976,1.099,1.0996,1.1005,1.1004,1.1007,1.1007,1.1008,1.1008,1.099,1.1007,1.1007,1.1007,1.1007,1.1007,0,1.0879,1.0887,1.0898,1.0912,1.0921,1.0922,1.0933,1.094,1.0951,1.096,1.097,1.0983,1.0994,1.1001,1.1012,1.1017,1.1018,1.102,1.1019,1.1021,1.1009,1.1006,1.1019,1.1019,1.1019,1.1019,1.1019,1.1019,1.0888,1.0902,1.0907,1.0925,1.0932,1.0945,1.0951,1.0959,1.0966,1.0981,1.0991,1.0996,1.1004,1.1015,1.1025,1.1027,1.103,1.1032,1.1034,1.1023,1.1021,1.102,1.1017,1.1033,1.1033,1.1044,1.1045,1.1045]}]]